This is the latest recevied weather packets stored in our database for station/object KC0RPY. If no packets are shown the sender has not sent any weather packets the latest 10 day(s).
| Time | Temp. | Humidity | Pressure | Rain* | Wind** | Luminosity | Snow |
|---|---|---|---|---|---|---|---|
| 1777656873 | 15.56° C | 38% | 1019.8 hPa | 0 mm | - | 786 W/m² | - |
| 1777656569 | 15.56° C | 41% | 1019.8 hPa | 0 mm | - | 791 W/m² | - |
| 1777656265 | 15.56° C | 38% | 1020.2 hPa | 0 mm | - | 802 W/m² | - |
| 1777655960 | 15.56° C | 41% | 1020.2 hPa | 0 mm | - | 821 W/m² | - |
| 1777655657 | 15.56° C | 40% | 1020.2 hPa | 0 mm | - | 805 W/m² | - |
| 1777655353 | 15.56° C | 41% | 1020.2 hPa | 0 mm | - | 814 W/m² | - |
| 1777655050 | 15.56° C | 42% | 1020.2 hPa | 0 mm | - | 838 W/m² | - |
| 1777654748 | 15.56° C | 42% | 1020.2 hPa | 0 mm | - | 844 W/m² | - |
| 1777654446 | 15.56° C | 40% | 1020.2 hPa | 0 mm | - | 856 W/m² | - |
| 1777654143 | 15° C | 43% | 1020.2 hPa | 0 mm | - | 815 W/m² | - |
| 1777653841 | 15° C | 42% | 1020.2 hPa | 0 mm | - | 844 W/m² | - |
| 1777653537 | 15° C | 42% | 1020.2 hPa | 0 mm | - | 885 W/m² | - |
| 1777653233 | 15° C | 43% | 1020.2 hPa | 0 mm | - | 901 W/m² | - |
| 1777652930 | 15° C | 42% | 1020.5 hPa | 0 mm | - | 897 W/m² | - |
| 1777652627 | 15° C | 38% | 1020.2 hPa | 0 mm | - | 911 W/m² | - |
| 1777652324 | 14.44° C | 42% | 1020.2 hPa | 0 mm | - | 889 W/m² | - |
| 1777652020 | 14.44° C | 44% | 1019.8 hPa | 0 mm | - | 874 W/m² | - |
| 1777651717 | 14.44° C | 46% | 1019.8 hPa | 0 mm | - | 863 W/m² | - |
| 1777651414 | 14.44° C | 45% | 1019.8 hPa | 0 mm | - | 836 W/m² | - |
| 1777651112 | 14.44° C | 46% | 1020.2 hPa | 0 mm | - | 797 W/m² | - |
| 1777650808 | 13.89° C | 45% | 1020.2 hPa | 0 mm | - | 769 W/m² | - |
| 1777650504 | 13.89° C | 43% | 1019.8 hPa | 0 mm | - | 772 W/m² | - |
| 1777650202 | 13.89° C | 45% | 1020.2 hPa | 0 mm | - | 744 W/m² | - |
| 1777649900 | 13.89° C | 45% | 1020.2 hPa | 0 mm | - | 737 W/m² | - |
| 1777649597 | 13.89° C | 47% | 1020.2 hPa | 0 mm | - | 728 W/m² | - |
* Rain latest hour (hover to see other rain measurements)
** Current wind speed in m/s (hover to see current wind gust speed)